Terug naar catalogus

TAIJING-4 02A

ActiefWetenschapSSO
NORAD 64087·PAYLOAD·🇨🇳 China
Deze satellietnaam is nog niet bevestigd door officiële bronnen.

Gelanceerd May 21, 2025 vanaf Jiuquan Satellite Launch Center

Loading…

Volgende Passages (komende 24 uur)

TLE

VersSource: Space-Track

Epoch: Sep 14, 2026, 22:47 UTC

1 64087U 25108A   26257.94985606  .00004573  00000-0  23530-3 0  9995
2 64087  97.4695 331.3708 0002734  23.9819 336.1542 15.16923253 72921

Volg TAIJING-4 02A in realtime met AllMySat

Download on the App Store